Wind_Speed
25 21 20 19 18 17 15 16 18 18 18 17 17 16 15 15 14 14 15 14 14 13 12 13 13 12 12 11 12 12 12 11 11 11 11 10 10 9 8 7 6 6 5 6 7 10 8 6 5 5 5 6 6 7 7 8 11 14 15 14 13 13 13 12 11 12 12 12 12 12 13 14 14 13 13 13 14 13 12 12 11 11 12 12 12
28 23 21 20 19 17 17 17 18 18 18 18 18 17 16 15 14 14 14 14 14 14 13 12 12 12 12 11 11 11 11 11 11 11 10 10 10 8 7 6 6 5 5 6 8 11 8 6 6 6 6 7 8 8 8 10 13 14 15 15 16 16 16 16 15 14 12 12 12 12 12 12 13 12 13 13 13 12 11 11 10 10 11 12 11
28 24 22 20 20 18 18 18 19 18 18 18 18 17 16 15 14 14 13 14 14 14 12 12 12 12 12 11 11 11 11 11 11 10 10 9 9 7 6 6 6 6 6 6 9 10 8 7 6 7 8 9 9 10 10 12 14 15 16 17 18 19 18 17 16 14 13 12 12 12 12 12 12 12 12 12 12 11 10 10 10 10 10 11 10
26 24 23 21 21 19 19 19 19 19 18 19 19 18 17 15 14 13 13 14 14 13 12 11 12 12 12 12 11 11 11 11 11 10 10 9 8 7 7 7 6 6 6 5 9 9 7 7 7 8 9 10 11 11 12 14 15 17 18 18 18 19 18 17 16 15 14 13 13 13 12 12 12 12 11 11 11 10 9 9 9 9 9 10 10
24 23 22 21 21 20 20 20 20 19 19 19 20 19 17 16 14 14 14 14 14 13 12 11 11 12 12 11 11 11 11 10 10 10 9 9 8 7 7 6 5 4 3 6 9 7 7 7 8 9 10 12 12 14 15 16 17 18 18 18 17 18 17 16 15 15 15 15 15 14 13 12 10 10 10 10 9 9 8 8 8 8 9 10 11
22 21 20 20 21 21 21 20 20 19 19 20 20 19 17 16 14 14 14 14 14 13 12 11 11 11 11 11 10 10 10 10 10 9 9 8 7 6 5 4 3 3 4 7 7 7 8 8 9 10 12 14 15 16 17 17 17 18 17 17 16 16 16 15 15 15 16 16 16 15 14 12 10 9 9 8 8 8 7 7 7 8 9 10 11
20 19 19 19 20 20 21 21 21 20 19 20 20 19 17 15 14 14 14 14 13 12 12 11 11 11 10 10 10 10 10 10 9 8 8 7 6 5 4 3 3 4 5 6 7 9 8 9 11 12 15 17 18 18 18 18 17 17 16 16 15 14 14 15 15 16 16 16 16 15 14 13 11 10 9 9 8 7 7 7 7 8 9 9 10
20 18 19 20 20 20 21 21 21 20 20 20 20 19 17 15 14 14 14 13 13 12 11 11 11 10 10 9 9 9 9 9 8 7 6 6 5 4 3 4 5 5 6 7 8 9 9 10 12 15 18 19 19 19 18 17 17 16 15 14 13 13 13 14 15 15 15 15 15 14 14 13 11 10 9 9 8 8 8 8 7 8 8 9 10
20 19 19 20 20 20 21 21 21 21 20 21 20 19 17 15 15 14 14 13 13 12 11 11 10 9 9 8 8 8 8 7 6 6 5 5 5 4 4 5 6 7 7 8 9 10 10 11 13 16 19 20 19 19 18 17 16 15 14 13 12 11 12 13 13 13 13 14 13 13 13 13 12 10 10 9 9 9 9 9 8 8 9 9 11
21 20 20 21 21 21 21 21 21 21 21 21 20 19 16 15 15 14 14 13 12 12 11 10 10 9 8 7 7 7 6 6 5 5 5 5 5 5 5 6 7 7 7 8 10 10 10 12 14 17 19 19 19 18 17 16 15 14 12 11 10 10 11 12 12 12 12 12 12 12 12 12 12 11 10 10 10 10 10 10 10 10 10 11 12
20 20 21 21 22 22 21 21 21 21 21 21 20 18 16 15 15 14 14 13 12 11 10 10 9 9 8 7 6 6 5 5 5 5 5 5 5 5 5 6 7 7 8 8 10 10 10 12 15 17 19 19 18 18 17 16 14 13 11 10 8 8 10 11 11 10 10 11 11 11 11 11 12 11 11 11 11 11 11 11 11 11 11 12 13
20 21 21 22 23 22 22 21 21 21 21 21 20 18 16 16 15 14 13 12 12 11 10 9 9 8 7 6 6 5 5 5 5 5 5 5 5 6 6 6 7 8 8 8 10 10 10 12 15 16 18 18 17 17 16 15 14 12 10 8 6 6 8 10 9 8 8 9 10 10 10 11 12 12 12 13 13 12 12 11 11 12 12 13 14
20 21 22 23 23 23 22 22 22 22 21 21 20 18 16 16 14 13 13 12 11 10 10 9 8 7 6 6 5 5 5 5 5 5 5 5 5 6 6 6 7 8 8 9 9 10 10 11 14 16 17 17 16 16 15 14 13 11 9 7 5 4 5 7 7 7 6 7 8 9 11 12 13 13 14 14 14 13 12 11 12 13 14 15 16
20 22 23 23 23 23 22 22 22 21 21 21 20 18 17 15 14 13 12 12 11 11 9 8 7 6 6 5 4 5 5 5 5 5 5 6 6 6 6 6 7 8 8 9 9 10 10 11 13 15 16 16 15 14 14 13 12 11 9 6 4 2 2 4 5 5 5 6 7 10 11 12 13 14 15 15 15 14 13 12 13 13 15 16 17
20 22 23 24 24 24 23 22 22 21 21 20 19 18 17 15 14 13 12 12 12 11 9 8 7 6 5 5 5 6 6 5 5 5 6 6 6 6 5 6 6 7 8 9 9 10 10 11 12 15 16 15 14 13 12 11 10 10 8 6 4 1 2 4 4 4 5 6 7 9 11 12 14 15 16 16 17 16 15 14 14 14 15 16 17
21 23 24 24 24 24 23 22 22 21 21 20 19 17 16 14 13 13 12 12 11 10 8 7 6 5 5 5 5 6 6 6 6 6 6 6 6 6 5 5 6 7 8 8 8 9 10 11 11 14 15 15 14 13 12 11 10 9 8 6 4 1 2 4 4 5 5 6 7 9 10 11 13 15 16 17 18 18 17 16 15 15 16 16 16
22 23 23 24 24 24 23 23 22 21 21 19 18 17 15 14 13 12 12 11 10 9 7 7 6 5 5 5 6 6 6 7 7 6 6 6 6 6 5 5 5 6 7 8 8 8 9 10 11 12 14 14 14 12 11 11 9 9 8 7 5 2 2 4 4 5 6 6 7 7 8 10 12 14 15 17 18 18 18 18 17 17 16 16 16
22 22 22 23 23 23 23 23 22 21 20 19 18 17 15 14 13 12 12 11 9 8 7 6 5 5 5 5 6 6 7 7 7 6 6 6 6 6 5 5 5 5 6 7 8 8 8 9 10 11 12 12 12 11 11 9 8 8 8 7 5 4 3 4 5 6 6 5 6 7 8 9 12 13 15 17 18 19 20 20 18 17 17 17 17
22 21 21 21 22 23 23 23 22 21 20 19 18 17 16 14 13 12 11 10 9 8 7 6 5 5 5 6 6 6 7 7 7 7 6 6 6 6 5 5 5 5 5 5 6 7 8 8 8 9 10 10 11 11 10 9 8 7 7 7 5 4 3 3 6 7 7 6 7 8 8 9 11 13 15 16 18 20 21 20 18 18 17 17 18
21 21 21 21 22 22 22 22 21 20 20 19 18 17 16 15 13 13 12 11 9 8 6 6 6 6 6 6 5 6 7 7 7 7 7 7 6 5 5 5 4 4 4 4 5 6 6 7 7 7 8 8 9 9 9 8 7 6 6 5 4 4 4 4 6 8 8 7 7 8 9 10 11 13 15 15 17 19 20 19 19 19 19 19 19
23 22 21 21 21 20 20 20 20 20 20 19 18 17 16 15 14 13 12 11 10 8 7 7 7 7 6 5 4 4 5 6 7 8 8 7 6 5 4 4 4 4 4 4 4 4 5 6 6 6 6 7 8 8 8 7 6 5 5 4 3 4 4 5 7 7 7 8 8 8 9 10 11 13 14 15 16 18 19 20 20 21 20 20 21
24 23 21 20 19 19 19 19 20 19 19 19 17 17 16 15 14 13 13 11 10 9 9 9 8 7 5 4 3 3 4 6 7 7 8 7 6 5 4 3 3 3 3 4 4 4 4 5 5 5 5 5 6 6 7 6 5 4 3 2 1 2 2 3 4 4 6 7 8 9 10 11 11 12 13 15 16 18 19 20 21 21 21 22 22
24 23 21 20 18 17 18 18 18 18 18 17 16 16 15 15 14 13 12 12 11 11 11 9 8 6 5 5 5 5 5 5 5 5 5 6 5 4 4 3 3 3 3 4 4 4 4 4 5 5 5 6 6 6 6 6 4 4 2 1 1 1 2 2 4 5 6 7 9 10 11 12 13 13 14 15 17 19 20 21 22 22 23 23 23
23 22 20 20 18 17 17 17 16 16 16 16 16 15 15 14 14 12 12 13 13 12 11 9 7 5 6 7 5 5 5 4 3 3 3 3 4 2 2 3 2 2 3 4 5 5 5 5 6 7 7 7 6 6 6 5 4 4 2 1 1 1 3 4 5 6 8 9 11 12 13 14 15 16 16 17 19 20 21 22 22 23 23 23 24
22 21 20 20 18 17 16 17 16 15 15 15 15 14 14 15 14 13 13 14 13 12 10 8 6 6 7 6 5 5 4 3 3 2 2 3 3 1 1 1 2 2 3 4 5 5 5 5 6 7 7 6 5 4 4 4 4 4 3 3 3 3 4 5 6 8 9 11 12 13 15 15 17 17 17 18 20 21 22 22 23 23 24 24 24
22 21 20 20 19 18 17 18 17 16 15 14 14 14 15 15 14 14 15 14 13 11 8 6 5 6 6 4 4 4 3 2 3 2 2 2 2 1 1 1 2 2 3 4 4 5 4 4 5 5 5 4 3 3 3 4 4 4 5 5 6 6 7 7 8 10 11 12 13 15 16 16 16 16 17 18 20 21 22 23 23 23 23 23 23
22 21 21 21 20 20 19 19 19 18 16 15 14 14 15 14 14 15 15 14 11 9 7 5 5 6 5 3 3 3 2 1 1 2 2 2 2 1 2 1 2 3 3 4 4 5 4 3 3 3 3 3 3 4 4 5 5 6 7 7 8 9 10 10 11 12 13 14 15 16 16 16 16 16 17 18 20 21 22 23 23 22 22 22 25
21 22 22 22 21 21 20 19 19 18 18 17 16 15 15 15 16 15 14 13 11 9 7 6 7 6 4 3 2 1 1 2 2 2 2 2 2 1 2 1 2 3 3 3 4 4 4 4 4 4 4 5 5 5 6 7 8 9 9 10 11 12 12 13 14 14 15 16 17 18 18 17 17 17 18 19 21 22 23 23 23 22 21 20 23
23 22 22 22 22 22 21 20 19 19 18 18 17 16 16 17 17 16 14 13 12 10 8 8 9 7 4 3 3 2 1 2 3 3 2 3 2 1 1 1 1 1 2 2 3 3 3 4 4 5 6 7 7 7 8 9 10 11 12 12 13 13 14 15 15 16 17 18 18 18 18 18 18 18 19 20 21 20 21 20 20 21 19 17 18
26 23 23 24 23 23 22 20 20 19 19 19 18 18 18 18 18 16 14 13 12 11 9 9 9 6 3 3 4 4 4 4 4 4 2 1 2 1 1 2 1 1 1 2 2 3 4 4 6 7 8 8 9 9 10 11 12 13 13 14 14 15 16 16 17 17 18 18 18 17 17 17 17 17 17 17 18 17 18 18 18 19 17 16 17
28 25 25 25 24 24 22 21 21 20 20 20 20 19 19 19 18 17 14 12 11 11 10 8 7 4 3 5 6 6 6 6 5 5 3 1 1 1 2 2 2 2 2 3 3 4 4 5 7 8 8 9 10 11 11 12 12 12 13 14 15 16 17 17 17 17 17 17 16 15 14 15 15 15 14 14 15 14 15 15 15 16 15 16 19
29 26 25 25 25 24 22 21 21 21 22 21 21 20 19 19 18 16 14 11 11 10 8 7 5 4 5 7 7 7 6 6 6 5 3 3 3 2 2 2 3 3 3 4 4 5 5 6 7 8 9 9 10 11 12 12 12 13 13 14 14 15 15 15 15 15 15 15 14 13 11 10 10 10 11 12 13 13 13 12 13 14 14 14 17
28 26 26 26 25 22 20 20 21 22 22 22 21 20 19 19 17 15 12 11 10 8 7 6 5 5 7 9 8 7 7 6 6 5 4 4 4 3 3 4 4 4 4 5 5 5 6 6 8 9 9 10 11 11 11 12 13 14 14 14 14 14 14 14 14 14 14 13 12 11 10 8 7 7 10 11 12 12 13 13 13 13 12 10 12
27 27 27 26 24 20 20 20 21 21 21 21 21 20 18 17 15 13 11 9 7 6 7 7 7 8 10 10 9 7 7 7 7 6 6 6 5 4 4 5 4 4 4 5 6 6 6 7 8 10 10 11 11 12 12 13 13 13 14 14 14 14 14 14 14 14 13 12 10 10 10 9 9 9 10 11 12 12 12 13 12 12 12 10 10
27 27 25 25 23 21 21 21 19 20 20 19 19 18 16 14 12 10 9 7 7 7 8 9 9 11 12 11 9 8 8 7 7 7 7 6 6 4 4 5 4 4 5 5 6 7 7 8 9 10 11 11 12 13 13 13 13 12 13 14 14 14 14 14 13 13 12 10 9 9 10 10 10 11 12 13 13 13 12 13 13 13 13 12 11
26 25 24 25 25 22 22 20 19 19 18 17 16 15 13 11 10 9 9 8 9 10 10 11 11 12 12 10 8 8 8 7 7 7 7 6 5 4 4 5 4 5 5 6 6 7 8 9 9 10 11 12 13 13 13 12 12 11 12 13 13 13 13 13 12 11 11 10 10 10 10 11 12 13 14 15 15 15 15 14 14 15 15 14 13
26 25 26 27 25 22 21 20 19 18 17 16 14 13 11 10 10 12 12 11 12 12 12 13 13 13 12 10 9 9 8 8 7 6 6 6 5 4 5 5 5 5 5 6 6 7 8 10 11 12 12 13 13 12 12 11 10 10 11 12 13 14 13 13 11 11 11 11 11 11 12 12 13 14 15 15 16 16 16 15 14 14 14 14 14
27 27 27 27 23 21 21 20 18 18 17 16 14 13 13 13 13 15 15 14 13 14 14 15 14 13 12 10 10 9 8 8 7 5 5 5 4 4 5 5 6 6 6 7 8 8 10 11 13 14 14 14 14 12 11 10 9 10 11 12 13 13 12 12 11 11 12 12 12 12 12 13 13 14 14 15 15 16 16 15 14 13 13 13 13
28 28 26 24 22 20 21 20 19 19 19 17 15 15 15 16 16 16 16 16 15 16 17 16 14 13 12 10 10 10 9 8 6 6 5 5 5 5 6 7 7 8 9 10 11 11 12 13 14 15 16 16 16 14 13 11 11 11 12 12 11 11 11 10 11 11 11 11 11 11 12 12 13 13 14 14 15 16 17 17 16 15 14 13 13
26 26 24 23 23 22 23 23 22 22 22 20 18 17 18 18 17 17 17 17 17 18 17 15 14 12 11 10 10 10 9 8 7 7 6 6 7 7 8 9 9 10 11 12 13 13 13 14 14 15 15 16 16 15 15 13 12 10 10 10 9 9 11 11 10 10 10 10 10 11 12 13 14 14 15 16 16 16 17 18 18 17 16 14 14
25 23 22 24 24 24 25 25 24 24 24 22 19 19 20 20 19 19 19 19 19 19 18 15 14 12 11 10 10 9 8 8 8 8 8 8 8 9 9 10 11 12 13 13 13 14 15 15 14 13 13 13 14 14 13 13 12 9 7 8 9 9 11 12 11 10 9 10 11 13 14 15 16 16 17 18 18 18 17 18 19 20 18 16 15
25 22 22 24 25 25 25 24 24 24 24 22 20 20 21 20 20 21 21 20 20 19 18 16 14 13 12 11 10 9 8 9 9 9 9 10 10 10 10 11 11 13 14 14 15 15 15 14 13 12 12 13 13 13 13 13 13 12 10 9 8 9 10 11 11 11 11 12 14 16 17 17 18 18 18 18 18 18 17 17 18 20 20 18 17
23 21 23 24 25 26 24 23 23 24 24 21 20 21 21 20 21 22 22 20 20 19 17 15 13 13 13 12 11 10 9 9 10 10 11 11 11 11 11 11 12 13 14 15 15 14 12 11 11 12 12 13 14 15 16 15 15 15 14 11 9 9 9 10 10 11 12 13 15 16 16 16 17 17 16 16 16 16 16 15 16 19 20 19 18
24 22 24 25 25 26 24 23 23 22 22 20 20 21 22 22 22 22 21 20 19 18 16 14 14 15 14 13 12 11 11 10 11 12 12 12 12 11 11 11 11 12 13 13 12 11 10 10 11 12 12 13 14 16 16 16 16 15 13 10 11 8 5 7 9 10 10 11 12 13 14 15 15 14 14 15 15 15 15 15 15 17 19 19 19
26 22 24 26 26 26 24 22 22 21 21 20 21 22 23 23 23 23 22 21 19 16 15 15 16 16 15 13 13 12 12 12 13 13 13 12 11 11 10 10 9 10 10 10 10 10 10 11 11 12 12 13 14 15 15 16 15 13 11 9 8 5 6 12 12 7 6 8 10 12 13 14 15 15 15 15 15 15 15 16 16 17 18 20 20
28 24 25 26 25 25 23 22 22 22 22 22 21 22 24 24 24 24 23 22 19 16 15 16 16 15 14 13 13 13 13 13 13 13 12 11 11 10 8 8 7 7 8 9 10 10 10 11 11 12 12 13 13 13 13 13 12 11 10 9 7 6 10 15 13 10 9 7 8 12 13 14 15 14 15 15 16 16 16 17 17 18 19 19 20
29 25 26 26 25 24 23 23 23 23 23 23 22 23 23 23 22 22 21 19 17 15 16 17 15 14 13 13 12 12 11 11 11 10 10 9 9 7 6 5 6 6 7 9 9 10 10 11 11 11 11 11 10 10 9 9 9 9 9 9 9 10 12 13 13 16 15 11 11 12 14 17 17 16 17 17 18 18 17 18 19 20 20 20 20
29 27 27 26 25 23 23 24 23 23 24 24 23 23 23 22 21 20 18 17 15 15 16 16 15 14 13 12 11 9 8 9 9 8 7 6 5 4 4 4 6 7 8 9 9 10 10 10 10 10 9 9 8 8 7 7 7 7 8 8 8 9 10 11 12 14 16 18 18 15 16 17 17 18 20 20 20 19 19 19 20 21 21 21 21
29 27 27 25 24 23 24 24 23 24 24 24 23 22 21 20 20 19 17 17 16 16 16 15 14 13 12 11 11 9 7 7 7 6 4 3 3 3 3 4 6 7 8 9 9 9 9 9 9 8 8 8 7 7 7 7 7 7 8 8 7 6 6 7 9 11 14 18 20 22 23 21 19 20 21 22 21 20 21 21 21 21 22 23 23
29 27 27 25 24 24 24 24 24 24 24 23 23 22 21 20 18 17 17 17 17 16 16 14 13 13 12 12 11 9 6 6 6 4 3 2 2 2 3 4 5 6 7 8 8 8 8 8 7 7 7 7 7 8 8 8 9 9 9 9 8 8 8 8 10 13 15 16 18 22 25 25 24 23 22 22 22 21 22 23 23 22 22 24 25
29 27 27 26 24 24 25 24 24 24 24 23 23 22 21 19 17 17 17 17 16 15 14 13 13 13 12 12 11 8 6 5 5 4 4 3 2 3 4 4 5 6 6 6 6 6 7 6 6 6 7 7 8 9 9 9 10 10 11 11 12 12 12 13 15 16 18 19 20 22 24 24 25 24 23 22 21 21 22 24 25 25 25 25 26
Wind_Direction
171 170 175 167 162 155 153 153 153 158 156 155 150 147 146 143 140 136 137 137 135 132 129 124 122 121 119 118 116 114 110 107 105 103 100 99 99 96 91 90 84 75 56 46 36 22 25 42 59 79 91 110 114 114 110 107 107 107 112 113 110 109 107 103 98 93 91 88 85 84 88 92 91 85 82 81 80 76 72 70 68 67 66 63 60
167 167 173 165 161 154 155 154 154 160 157 155 150 150 148 146 142 138 140 138 137 134 131 127 123 121 119 119 118 115 112 109 104 103 101 99 98 95 89 81 70 59 34 28 22 16 30 55 66 89 101 117 121 122 119 117 117 113 113 112 111 109 105 100 97 93 90 88 86 84 83 86 88 85 83 82 80 78 73 68 64 59 59 57 53
162 163 169 163 160 155 155 154 157 161 158 155 151 152 150 148 144 140 141 138 138 135 134 128 124 120 119 119 118 115 112 111 106 104 102 100 98 93 85 70 60 45 28 23 12 14 42 64 78 96 107 119 120 123 124 124 122 119 117 114 113 108 104 100 95 91 88 86 85 84 82 82 83 82 81 80 79 75 69 66 61 52 50 52 49
160 160 165 162 159 155 155 155 158 161 159 155 153 154 152 151 146 143 142 139 139 137 137 130 125 120 120 119 117 116 113 113 107 105 102 99 93 86 78 65 58 45 38 15 1 19 58 74 91 103 111 118 121 123 122 125 124 122 119 115 114 108 104 100 95 90 87 85 82 81 79 78 78 77 75 76 75 71 65 62 60 49 40 42 43
159 159 162 161 158 155 156 157 159 161 159 155 154 156 154 152 147 145 144 141 141 141 140 132 129 124 122 119 116 114 111 112 109 106 102 98 92 83 75 66 56 48 28 349 358 39 75 87 101 109 115 119 122 124 122 123 122 120 117 114 113 109 106 101 97 93 87 83 78 75 72 71 71 70 69 70 69 66 60 54 54 46 36 34 32
159 159 162 162 158 156 156 157 159 161 159 156 156 158 157 154 149 147 146 144 145 145 143 137 132 127 125 120 116 113 109 110 109 105 100 98 96 88 81 70 42 7 340 346 20 65 87 100 108 114 120 123 125 125 124 122 120 117 114 112 110 108 105 99 95 92 86 81 77 73 67 63 63 62 59 56 52 49 46 43 41 38 33 28 24
162 161 162 162 160 157 156 158 160 161 159 157 158 160 158 155 152 149 149 147 148 148 144 139 134 131 126 121 116 112 108 107 106 101 94 93 97 98 92 57 8 352 358 22 54 78 94 108 114 119 124 128 128 126 124 122 119 116 112 109 107 105 101 95 90 87 83 78 76 71 66 60 55 54 48 40 34 30 28 29 29 30 26 21 18
164 164 164 162 162 159 157 159 160 161 159 159 160 161 160 157 154 151 151 150 150 149 144 140 136 132 126 121 115 109 107 106 104 98 88 82 80 80 65 22 10 18 36 54 70 84 99 113 120 125 128 131 130 127 124 121 118 113 109 106 104 102 97 91 87 83 80 76 73 68 63 56 48 45 41 33 23 17 16 16 14 17 17 14 11
164 165 164 162 163 161 159 160 160 161 160 161 162 162 161 158 155 153 152 152 151 148 144 140 136 132 125 118 111 106 103 102 100 91 78 66 57 45 31 20 24 36 49 64 76 88 104 118 126 130 133 134 131 128 125 121 116 111 106 103 100 99 94 88 85 81 80 76 70 65 59 50 40 33 31 28 18 10 8 8 5 5 7 7 5
164 163 164 165 163 162 161 160 160 161 161 163 163 163 162 159 157 155 154 153 150 147 144 140 136 131 124 116 109 103 97 92 86 74 61 50 41 34 27 29 36 43 55 69 79 92 108 121 131 134 137 136 133 130 126 121 115 110 105 102 101 99 93 87 86 83 81 75 67 62 56 45 34 22 18 17 13 6 1 2 359 358 358 358 358
163 163 165 167 164 162 161 160 160 161 162 163 163 163 163 161 159 157 156 153 150 148 145 139 133 128 121 116 108 98 90 79 68 57 47 40 35 38 37 39 43 49 60 72 83 95 109 125 136 139 141 139 135 132 127 121 115 111 108 105 103 100 95 89 88 83 76 71 64 59 52 38 24 14 10 7 4 0 356 356 353 351 351 349 349
163 164 167 168 165 161 161 161 160 161 164 164 164 165 164 162 161 160 158 154 151 148 143 137 130 124 117 111 104 94 82 67 57 48 43 44 45 48 45 42 47 55 62 74 85 96 110 126 140 144 145 143 139 135 128 122 118 115 113 110 105 100 98 94 90 85 75 66 60 53 45 29 13 6 4 360 356 353 351 351 347 345 345 343 343
165 167 169 169 165 161 161 160 160 162 163 164 165 167 166 164 164 162 158 154 151 147 141 135 129 122 113 107 99 86 73 62 57 57 62 62 62 58 52 48 51 58 63 75 87 97 109 125 142 148 149 147 144 139 132 127 124 122 120 117 108 91 88 91 87 84 73 56 51 45 35 22 7 360 359 357 353 349 348 347 343 341 340 339 339
169 170 170 168 164 161 161 161 161 163 164 166 167 169 168 167 166 163 156 152 150 146 140 134 128 119 112 102 90 77 69 68 70 75 79 76 72 68 62 57 59 64 68 77 89 98 107 123 142 152 153 152 148 143 137 134 131 128 128 127 122 100 53 68 69 63 51 37 40 40 29 18 8 3 1 0 358 351 347 344 340 337 337 338 339
174 171 170 168 165 162 162 161 162 163 166 167 169 171 170 169 166 160 153 151 149 146 140 134 127 116 106 90 77 73 72 77 83 85 86 84 79 74 70 68 71 74 76 81 93 101 106 118 140 154 156 156 153 148 144 142 140 137 139 141 143 132 13 28 40 30 27 28 32 33 24 15 9 6 1 359 358 354 349 344 340 338 338 340 341
174 171 171 169 166 164 162 162 163 165 168 169 170 172 171 170 165 157 150 147 145 143 139 132 121 108 95 84 80 79 82 86 87 90 88 86 82 78 76 79 87 87 85 88 97 106 108 114 134 153 159 160 159 156 154 153 151 147 147 151 160 172 330 347 7 5 11 22 21 20 15 7 3 3 358 354 354 354 352 347 344 342 342 343 342
171 172 171 170 167 165 164 163 164 166 168 170 172 172 172 169 161 153 146 143 141 139 135 126 114 103 97 94 94 91 92 92 91 96 94 91 87 83 82 87 98 100 97 96 101 109 112 113 123 146 160 164 165 165 165 164 162 158 156 161 174 195 275 313 335 347 356 8 6 2 0 356 354 356 354 350 349 350 350 347 345 343 342 341 340
168 170 171 171 169 167 166 164 165 167 170 172 173 173 171 166 158 151 145 143 140 135 132 124 116 110 110 106 105 103 99 97 98 101 102 100 93 88 89 94 104 111 111 104 104 110 115 118 119 132 151 164 170 172 174 174 172 168 168 173 184 205 249 290 316 336 341 343 341 339 347 351 350 350 349 346 343 344 345 344 343 341 340 340 340
166 168 170 172 171 169 168 165 166 168 172 173 173 172 168 163 156 152 148 145 142 137 134 131 129 124 120 114 112 110 101 100 102 104 104 98 92 89 90 96 108 120 125 117 108 110 114 120 123 127 139 154 166 173 179 183 182 180 181 186 195 215 243 283 313 326 326 323 325 332 346 351 349 346 344 342 340 340 341 341 340 339 338 337 337
166 169 172 175 174 173 169 165 166 168 173 174 174 172 166 161 158 155 152 150 146 142 141 140 141 138 133 125 120 115 104 99 100 100 98 92 88 88 91 96 109 125 138 141 126 117 116 118 123 127 134 146 160 170 179 187 192 194 198 205 220 242 254 284 308 313 313 317 325 334 342 345 345 340 339 338 335 337 338 337 336 335 334 333 333
170 172 175 177 176 174 170 164 165 168 173 175 176 173 165 161 162 160 157 154 151 148 147 146 147 147 143 134 129 131 115 102 97 94 90 86 84 85 93 100 109 131 148 159 158 143 132 125 122 125 133 145 154 162 172 178 184 191 204 219 241 254 263 288 308 309 301 302 312 324 329 335 336 334 333 332 332 333 334 333 332 332 331 330 330
173 173 174 175 175 172 168 165 166 169 173 176 177 171 165 165 166 166 162 159 157 154 152 149 151 150 143 138 134 135 123 111 103 95 90 84 81 83 86 95 105 123 145 160 172 171 159 145 134 129 135 145 149 150 154 154 153 162 182 205 238 244 259 295 315 316 305 298 303 312 319 326 328 329 328 326 327 327 328 329 330 330 328 328 328
174 172 170 170 171 170 168 167 168 169 173 176 176 170 167 170 171 171 166 161 159 155 155 155 153 144 131 133 128 119 118 120 111 95 88 85 85 87 86 93 112 121 139 151 159 169 171 163 153 146 140 141 145 147 151 152 157 165 173 196 317 307 304 313 315 317 315 307 305 309 316 322 324 325 324 321 321 321 323 326 327 327 326 327 326
173 171 167 165 167 169 168 168 169 170 173 176 174 172 171 174 175 172 166 161 160 158 159 160 155 138 127 128 129 123 119 126 123 103 87 84 82 87 96 100 123 138 149 152 151 151 153 157 157 155 150 144 146 154 167 180 192 200 213 251 311 323 318 317 318 319 315 309 308 311 313 316 318 320 321 319 319 320 322 324 325 325 325 325 324
171 169 166 164 165 168 168 168 170 172 175 177 174 173 174 175 176 170 163 160 160 162 163 163 156 144 136 130 133 131 124 127 121 119 98 75 61 46 133 127 146 164 172 168 161 153 147 149 153 157 159 158 166 177 194 210 226 243 264 289 303 307 311 312 314 316 312 308 307 310 311 310 312 316 319 319 320 321 321 323 323 322 322 322 322
172 171 168 165 166 168 170 171 172 173 174 176 175 175 174 173 174 169 163 163 164 166 166 165 160 153 147 138 140 136 126 125 110 102 72 49 19 326 252 206 181 194 199 195 191 181 167 161 163 167 171 180 200 218 233 248 259 270 286 296 302 303 305 307 309 311 310 309 310 311 312 310 310 312 316 318 319 320 320 320 319 319 319 319 316
177 175 172 169 170 172 174 176 174 172 172 175 179 176 173 172 174 171 168 170 170 168 168 170 172 169 163 148 143 132 101 82 49 46 29 3 337 301 255 264 207 207 215 212 214 212 205 196 195 201 211 224 237 246 257 271 279 286 298 301 302 302 303 306 308 310 309 310 311 312 313 311 311 312 313 315 316 316 315 314 315 315 315 315 312
183 180 179 176 176 177 177 178 176 175 173 175 180 177 175 176 176 174 173 176 175 173 174 175 178 179 175 156 143 114 34 328 317 322 333 328 337 324 250 255 208 203 203 207 218 221 222 224 229 239 251 260 263 271 279 288 295 296 301 301 301 301 302 305 306 307 306 306 307 307 308 307 309 310 311 312 311 311 311 311 312 312 314 316 312
189 187 188 183 180 180 177 178 178 176 177 177 178 179 179 179 178 176 178 181 178 178 180 179 182 183 178 170 177 187 240 281 276 261 289 308 316 326 273 249 215 208 188 213 234 236 243 254 262 267 275 279 278 282 287 292 295 294 294 295 296 298 299 301 301 301 300 300 301 303 304 304 306 307 308 308 309 311 311 312 315 316 320 322 318
189 188 187 186 184 181 176 176 176 176 180 177 177 180 180 181 180 179 184 186 182 182 182 184 188 185 179 204 214 212 213 232 252 246 238 282 277 281 279 248 239 270 233 242 260 265 273 279 283 285 284 287 289 289 290 291 290 288 287 288 290 293 294 295 295 295 295 296 299 302 302 304 306 308 310 312 314 319 320 322 327 329 334 332 325
186 185 183 186 187 181 174 172 172 175 179 176 177 181 181 183 184 186 191 192 187 184 181 185 189 183 203 229 233 230 220 216 229 234 208 184 218 222 254 264 273 282 270 272 282 286 287 289 290 289 285 285 289 289 287 287 285 285 285 287 290 291 291 291 292 293 294 295 298 303 308 312 316 318 320 320 322 325 325 328 330 332 342 340 331
182 182 182 188 187 179 171 170 172 174 177 177 179 182 183 185 187 191 195 193 188 183 181 191 197 202 226 236 239 236 229 212 202 208 199 179 185 198 236 256 262 264 270 285 291 287 287 291 289 285 284 284 285 286 286 287 288 289 291 293 294 293 293 293 295 297 298 298 299 304 311 317 322 323 321 321 323 322 320 322 326 331 342 339 330
179 181 186 189 186 180 172 172 174 172 175 179 179 181 183 185 189 192 193 191 188 189 199 212 224 231 234 236 236 232 231 213 186 182 185 185 191 204 231 239 253 271 282 293 294 292 290 293 291 287 288 288 288 288 290 296 299 301 302 302 301 299 300 301 304 304 302 301 299 298 295 293 295 297 304 312 313 312 315 319 323 330 338 333 323
179 184 190 189 186 182 175 174 172 168 173 179 181 183 183 185 188 188 189 192 196 211 222 233 247 242 233 227 225 224 225 209 187 187 191 194 208 219 240 253 268 281 287 295 298 300 295 290 292 292 292 292 293 294 298 305 308 311 310 307 305 304 304 304 304 303 300 296 291 286 280 278 285 291 296 301 302 306 314 318 319 323 328 328 322
186 190 190 187 187 184 179 177 174 171 175 179 183 185 183 185 187 189 196 203 216 231 236 244 243 233 224 220 221 223 218 206 198 202 200 204 224 240 251 259 267 273 283 290 291 294 289 286 288 289 291 294 297 300 304 308 311 315 313 308 305 303 302 301 301 298 291 286 280 274 271 276 287 296 298 300 302 305 308 310 312 316 319 322 322
194 194 188 188 188 184 184 184 181 179 178 178 181 181 181 190 199 211 221 225 232 238 240 239 230 220 218 216 220 225 220 214 211 211 215 222 236 251 257 259 265 271 278 282 283 285 285 287 288 290 293 296 299 302 306 310 314 317 314 310 307 304 303 302 301 295 285 282 278 273 274 282 294 302 305 306 307 308 309 310 310 314 318 320 319
198 195 190 190 188 187 189 189 187 184 182 182 180 183 191 204 216 224 230 232 232 233 231 224 219 215 214 210 215 225 223 222 221 217 225 233 235 245 254 259 267 274 282 288 286 286 290 295 298 302 303 305 307 308 313 316 320 323 318 313 311 308 305 303 301 292 284 282 282 281 284 292 301 307 309 311 312 312 313 314 315 318 322 324 321
196 194 191 191 192 194 190 188 190 188 189 190 189 194 203 211 221 226 229 228 222 219 216 213 214 216 213 211 217 226 226 226 229 230 237 245 249 258 265 269 277 289 297 301 302 302 304 306 308 310 310 312 314 315 319 322 324 326 320 313 308 304 302 301 298 291 284 282 282 286 292 299 307 312 313 314 315 314 314 314 315 317 321 325 325
193 192 193 195 197 197 190 188 192 194 197 198 198 201 206 214 221 223 221 217 211 209 209 209 214 216 215 216 221 223 225 232 244 253 260 265 273 282 286 289 296 304 308 310 312 313 312 311 311 311 311 311 312 315 319 322 324 325 318 309 299 294 293 292 291 289 285 282 283 286 292 299 305 310 313 314 314 314 314 313 312 313 317 322 323
191 192 197 199 197 195 192 193 198 201 202 201 202 203 207 214 218 216 210 207 206 207 208 210 214 216 216 219 222 221 224 235 250 261 269 275 282 289 294 297 301 307 310 310 310 310 310 310 310 309 308 308 310 312 314 317 321 326 322 307 293 285 282 281 282 283 284 285 288 291 293 296 300 302 305 308 310 310 310 310 309 309 310 312 315
189 195 199 198 197 196 196 198 202 205 205 204 206 206 208 213 213 207 203 203 205 206 208 210 213 214 214 218 222 225 232 242 252 260 271 282 287 290 294 297 301 305 307 308 310 311 313 315 315 313 311 311 309 309 311 315 318 323 321 301 290 283 275 273 273 274 282 293 299 302 302 302 302 301 302 303 306 305 305 306 305 304 305 306 308
188 195 198 197 197 199 200 202 202 203 205 208 209 207 209 213 209 203 202 203 203 206 209 208 212 216 214 218 224 235 247 254 260 268 275 282 286 287 290 293 297 301 305 309 313 315 317 318 320 319 317 316 313 312 314 318 320 319 318 307 291 286 277 266 269 276 284 297 304 307 309 310 310 309 308 306 304 304 303 304 305 302 305 310 311
189 194 198 198 199 199 201 200 199 200 204 208 208 205 206 208 207 204 203 203 201 205 209 207 211 218 219 224 234 247 256 262 269 276 281 284 286 286 288 290 294 299 304 309 312 316 318 318 318 318 317 318 317 317 318 322 323 321 321 316 300 297 274 249 267 288 292 301 308 313 318 321 322 320 316 313 308 308 306 306 308 306 308 316 321
192 196 199 202 201 200 200 198 198 200 201 202 202 202 202 203 205 205 205 204 203 204 205 206 213 220 226 235 246 254 259 267 275 281 285 288 288 288 288 291 295 301 307 310 312 316 316 315 316 315 316 318 318 319 320 322 324 324 326 322 312 312 285 270 294 305 306 315 322 329 335 336 337 333 329 327 322 318 314 313 314 313 316 322 326
195 198 199 203 204 203 201 199 198 197 196 197 197 198 200 200 202 202 201 202 203 203 205 212 218 224 232 242 252 259 265 273 278 282 285 288 289 289 291 297 304 309 312 313 314 316 315 314 315 316 318 320 320 321 322 324 329 333 337 341 334 329 325 324 328 333 330 334 344 351 350 346 346 344 342 341 338 331 325 323 323 322 324 326 328
198 199 198 202 204 204 202 198 197 195 195 195 194 197 199 200 201 201 202 202 201 203 209 218 226 232 240 249 258 266 273 277 277 278 281 284 287 289 296 305 312 314 313 314 315 316 316 315 317 320 321 321 323 325 326 329 335 342 351 4 5 349 337 337 340 340 340 351 1 2 1 358 357 355 351 348 345 341 336 334 334 333 333 332 332
201 200 198 201 203 203 200 196 196 195 194 194 193 196 198 201 204 206 209 208 206 209 215 221 230 240 248 256 264 273 281 283 278 274 274 278 281 287 300 311 315 316 315 315 317 318 317 318 322 324 327 329 331 333 336 339 343 353 6 7 0 351 347 347 347 345 344 344 350 2 10 9 4 2 1 357 351 347 342 339 339 338 338 338 337
202 200 198 199 200 201 198 195 196 195 193 192 193 196 200 201 204 208 210 210 214 222 224 225 232 242 251 260 272 283 290 289 279 270 266 268 274 286 306 316 316 314 314 316 318 320 321 324 330 335 341 344 345 348 354 358 359 7 16 12 5 359 353 352 353 352 346 340 342 351 3 11 11 4 2 0 356 351 348 345 341 340 339 340 342
202 200 198 198 198 198 197 196 196 194 192 192 193 196 202 205 206 208 208 207 215 225 230 231 235 243 254 268 283 290 290 281 270 263 261 263 270 291 309 310 309 309 313 317 319 322 327 333 342 347 351 352 357 6 12 18 21 26 31 28 24 15 5 359 356 358 355 349 347 347 350 358 6 7 4 359 356 353 352 351 348 344 341 342 345
202 200 197 197 197 197 197 198 196 193 193 192 194 197 201 206 208 209 210 211 217 224 229 233 238 248 261 276 285 283 273 261 252 246 242 248 260 281 295 297 302 307 312 317 321 328 335 342 350 353 355 359 8 16 20 26 30 35 36 30 25 19 11 6 5 6 5 0 356 352 351 353 357 3 5 1 357 354 353 352 351 349 347 345 345
202 199 197 196 197 198 198 198 196 194 193 193 195 198 200 204 209 212 215 219 225 230 234 239 247 256 265 276 280 267 241 226 225 222 218 224 246 271 285 293 300 306 313 321 330 337 343 350 357 1 4 9 18 20 21 29 32 33 31 24 20 20 16 14 14 10 6 3 359 355 353 353 355 360 2 1 359 356 354 353 351 352 353 351 348
Height
1517 1521 1523 1525 1526 1526 1528 1528 1530 1531 1532 1533 1534 1535 1536 1537 1537 1537 1537 1538 1538 1538 1538 1538 1538 1539 1540 1540 1541 1541 1541 1541 1542 1542 1542 1543 1543 1544 1544 1544 1544 1544 1544 1543 1543 1542 1541 1540 1540 1539 1538 1538 1538 1538 1538 1538 1538 1538 1538 1538 1539 1539 1539 1540 1540 1540 1540 1540 1541 1541 1541 1541 1541 1541 1541 1541 1541 1541 1541 1541 1540 1540 1540 1540 1540
1515 1520 1523 1525 1526 1527 1528 1529 1530 1532 1533 1533 1534 1536 1536 1537 1537 1538 1538 1538 1539 1539 1539 1539 1539 1540 1540 1541 1541 1541 1542 1542 1543 1543 1543 1544 1544 1544 1544 1544 1544 1544 1544 1544 1543 1542 1541 1540 1540 1539 1539 1539 1539 1539 1539 1539 1539 1539 1539 1539 1539 1540 1540 1540 1541 1541 1541 1541 1542 1542 1542 1542 1542 1542 1542 1542 1542 1542 1541 1541 1541 1541 1541 1541 1540
1515 1520 1523 1525 1526 1527 1528 1529 1531 1532 1533 1534 1535 1536 1537 1538 1538 1539 1539 1539 1540 1540 1540 1540 1540 1540 1541 1542 1542 1542 1543 1543 1543 1544 1544 1544 1545 1545 1545 1545 1545 1545 1544 1544 1543 1543 1542 1541 1540 1539 1539 1539 1539 1539 1540 1540 1540 1540 1540 1540 1540 1541 1541 1541 1542 1542 1542 1542 1542 1542 1543 1543 1543 1543 1543 1542 1542 1542 1542 1542 1542 1542 1541 1541 1541
1517 1520 1523 1525 1526 1527 1528 1529 1531 1533 1534 1535 1536 1537 1538 1538 1538 1539 1540 1540 1540 1541 1541 1541 1541 1541 1542 1542 1543 1543 1543 1544 1544 1544 1545 1545 1545 1545 1545 1545 1545 1545 1545 1544 1544 1543 1542 1541 1540 1540 1540 1540 1540 1540 1540 1541 1541 1541 1541 1541 1542 1542 1542 1542 1543 1543 1543 1543 1543 1543 1543 1543 1544 1544 1543 1543 1543 1543 1543 1543 1542 1542 1542 1541 1541
1518 1521 1523 1525 1526 1527 1528 1530 1532 1533 1534 1535 1537 1538 1538 1539 1539 1540 1540 1541 1541 1542 1542 1542 1542 1542 1543 1543 1543 1544 1544 1544 1545 1545 1545 1546 1546 1546 1546 1546 1545 1545 1545 1544 1544 1543 1542 1541 1541 1541 1540 1540 1541 1541 1541 1542 1542 1542 1542 1542 1543 1543 1543 1544 1544 1544 1544 1544 1544 1544 1544 1544 1544 1544 1544 1544 1544 1544 1543 1543 1543 1542 1542 1541 1541
1519 1522 1524 1526 1527 1527 1529 1530 1532 1534 1535 1536 1537 1538 1539 1539 1540 1540 1541 1542 1542 1543 1543 1543 1543 1543 1544 1544 1544 1544 1545 1545 1546 1546 1546 1546 1546 1547 1546 1546 1546 1546 1545 1545 1544 1543 1543 1542 1542 1541 1541 1541 1542 1542 1543 1543 1543 1543 1543 1544 1544 1544 1544 1545 1545 1545 1545 1545 1545 1545 1545 1545 1545 1545 1545 1545 1545 1544 1544 1544 1543 1543 1542 1542 1541
1520 1522 1524 1526 1527 1528 1529 1531 1532 1534 1535 1536 1537 1538 1539 1539 1540 1541 1542 1542 1543 1544 1544 1544 1544 1544 1545 1545 1545 1545 1546 1546 1546 1546 1547 1547 1547 1547 1547 1547 1546 1546 1545 1545 1544 1544 1543 1543 1542 1542 1542 1543 1543 1543 1544 1544 1544 1544 1545 1545 1545 1545 1545 1546 1546 1546 1546 1546 1546 1546 1546 1546 1546 1546 1546 1546 1545 1545 1545 1544 1544 1543 1543 1542 1541
1520 1523 1524 1526 1528 1529 1530 1531 1533 1534 1536 1537 1538 1539 1539 1540 1540 1541 1542 1543 1544 1544 1545 1545 1545 1545 1546 1546 1546 1546 1546 1547 1547 1547 1547 1547 1547 1547 1547 1547 1546 1546 1545 1545 1544 1544 1544 1544 1543 1543 1543 1544 1544 1545 1545 1545 1545 1546 1546 1546 1546 1546 1546 1547 1547 1547 1547 1547 1547 1547 1547 1547 1547 1547 1547 1546 1546 1546 1545 1545 1544 1544 1543 1542 1542
1520 1522 1524 1526 1528 1529 1530 1531 1533 1534 1536 1537 1538 1539 1540 1540 1541 1542 1543 1544 1545 1545 1546 1546 1546 1546 1546 1547 1547 1547 1547 1547 1547 1548 1548 1548 1548 1547 1547 1547 1546 1546 1545 1545 1545 1545 1544 1544 1544 1544 1545 1545 1546 1546 1546 1546 1547 1547 1547 1547 1547 1547 1547 1547 1548 1548 1547 1547 1547 1547 1547 1547 1548 1547 1547 1547 1547 1546 1545 1545 1544 1544 1543 1543 1542
1521 1522 1524 1526 1527 1529 1530 1531 1533 1534 1536 1537 1538 1539 1540 1541 1541 1542 1543 1544 1545 1546 1547 1547 1547 1547 1547 1547 1548 1548 1548 1548 1548 1548 1548 1548 1548 1548 1547 1547 1546 1546 1546 1545 1545 1545 1545 1545 1545 1545 1546 1546 1547 1547 1547 1548 1548 1548 1548 1548 1548 1548 1548 1548 1548 1548 1548 1548 1548 1548 1548 1548 1548 1548 1548 1547 1547 1546 1546 1545 1545 1544 1543 1543 1542
1522 1523 1524 1526 1527 1528 1530 1531 1533 1534 1536 1537 1538 1539 1540 1541 1542 1543 1544 1545 1546 1547 1547 1548 1548 1548 1548 1548 1548 1548 1548 1548 1549 1549 1549 1549 1548 1548 1548 1547 1547 1546 1546 1546 1546 1546 1546 1546 1546 1546 1547 1547 1548 1548 1548 1549 1549 1549 1549 1549 1549 1549 1549 1549 1549 1549 1549 1549 1549 1548 1548 1548 1549 1548 1548 1547 1547 1546 1546 1545 1545 1544 1544 1543 1542
1524 1524 1525 1526 1527 1528 1530 1531 1533 1535 1536 1537 1538 1539 1540 1541 1542 1543 1544 1545 1546 1547 1548 1548 1548 1548 1548 1549 1549 1549 1549 1549 1549 1549 1549 1549 1549 1548 1548 1548 1547 1547 1547 1547 1546 1546 1546 1547 1547 1547 1548 1548 1549 1549 1549 1550 1550 1550 1550 1550 1549 1550 1550 1550 1550 1550 1550 1549 1549 1549 1549 1549 1549 1549 1548 1548 1547 1547 1546 1545 1545 1544 1544 1543 1542
1524 1525 1525 1526 1527 1528 1530 1531 1533 1535 1536 1538 1538 1539 1540 1541 1542 1543 1544 1545 1546 1547 1548 1548 1548 1549 1549 1550 1550 1550 1550 1550 1550 1549 1549 1549 1549 1549 1549 1548 1548 1548 1548 1548 1547 1547 1547 1547 1547 1548 1549 1549 1550 1550 1550 1550 1551 1551 1551 1550 1550 1550 1550 1550 1550 1550 1550 1550 1549 1549 1549 1549 1549 1549 1548 1548 1547 1547 1546 1545 1545 1544 1543 1543 1542
1524 1525 1525 1526 1527 1528 1530 1531 1533 1535 1536 1537 1538 1539 1540 1541 1542 1543 1544 1545 1546 1547 1548 1548 1549 1549 1550 1550 1550 1550 1550 1550 1550 1550 1549 1549 1549 1549 1549 1549 1549 1549 1548 1548 1548 1548 1548 1548 1548 1549 1549 1550 1550 1551 1551 1551 1551 1552 1551 1551 1551 1551 1551 1551 1551 1551 1550 1550 1550 1549 1549 1549 1549 1549 1548 1548 1547 1546 1546 1545 1545 1544 1543 1542 1542
1524 1525 1525 1526 1527 1528 1530 1531 1533 1535 1536 1537 1538 1539 1540 1541 1542 1543 1544 1545 1546 1547 1548 1549 1549 1550 1550 1551 1551 1551 1551 1550 1550 1550 1550 1550 1550 1549 1549 1549 1549 1549 1549 1549 1549 1549 1549 1548 1549 1549 1550 1551 1551 1552 1552 1552 1552 1552 1552 1552 1552 1552 1551 1551 1551 1551 1551 1550 1550 1549 1549 1549 1549 1548 1548 1547 1547 1546 1545 1545 1544 1544 1543 1542 1541
1525 1525 1525 1526 1527 1528 1529 1531 1533 1534 1536 1537 1538 1539 1540 1541 1542 1543 1544 1545 1546 1547 1548 1549 1550 1550 1551 1552 1552 1551 1551 1551 1551 1551 1550 1550 1550 1550 1550 1550 1550 1550 1550 1550 1550 1550 1550 1549 1549 1550 1550 1551 1552 1552 1552 1553 1553 1553 1553 1553 1553 1552 1552 1552 1552 1551 1551 1551 1550 1550 1549 1549 1549 1548 1548 1547 1547 1546 1545 1545 1544 1544 1543 1542 1541
1525 1525 1525 1526 1527 1528 1530 1531 1533 1534 1536 1537 1538 1540 1541 1542 1543 1544 1544 1545 1547 1548 1549 1550 1550 1551 1551 1552 1552 1551 1551 1551 1551 1551 1551 1550 1550 1550 1550 1550 1550 1550 1550 1550 1550 1550 1550 1550 1550 1550 1551 1552 1552 1553 1553 1553 1554 1554 1554 1554 1554 1553 1553 1552 1552 1552 1551 1551 1550 1550 1549 1549 1548 1548 1547 1547 1547 1546 1545 1545 1544 1543 1542 1542 1541
1525 1526 1527 1528 1529 1529 1530 1531 1533 1535 1536 1537 1539 1540 1541 1542 1543 1544 1544 1545 1546 1548 1549 1550 1550 1551 1551 1552 1552 1552 1552 1551 1551 1551 1551 1551 1550 1550 1550 1550 1550 1550 1550 1551 1551 1551 1551 1551 1551 1551 1552 1552 1553 1553 1554 1554 1554 1555 1555 1555 1554 1554 1554 1553 1553 1552 1552 1551 1551 1550 1549 1549 1548 1548 1547 1547 1546 1546 1545 1544 1544 1543 1542 1542 1541
1527 1528 1529 1530 1530 1530 1531 1532 1534 1535 1537 1538 1539 1540 1541 1542 1543 1544 1544 1545 1546 1548 1549 1549 1550 1551 1551 1552 1552 1552 1552 1552 1552 1552 1551 1551 1551 1551 1551 1551 1551 1551 1551 1551 1551 1552 1552 1552 1552 1552 1552 1553 1553 1554 1554 1554 1555 1555 1555 1555 1555 1554 1554 1554 1553 1553 1552 1552 1551 1550 1550 1549 1548 1548 1547 1547 1546 1546 1545 1544 1543 1543 1542 1542 1541
1527 1528 1529 1530 1530 1531 1532 1533 1535 1536 1538 1539 1540 1540 1541 1542 1543 1543 1544 1545 1546 1547 1548 1549 1550 1550 1551 1552 1552 1552 1552 1552 1552 1552 1552 1551 1551 1551 1551 1551 1551 1551 1551 1551 1552 1552 1552 1552 1553 1553 1553 1553 1553 1554 1554 1555 1555 1555 1556 1556 1556 1555 1555 1554 1553 1553 1552 1552 1551 1550 1550 1549 1548 1547 1547 1546 1546 1545 1545 1544 1543 1543 1542 1541 1541
1526 1526 1527 1529 1530 1531 1532 1534 1535 1537 1538 1539 1540 1541 1542 1542 1543 1543 1544 1545 1546 1547 1547 1548 1549 1550 1551 1552 1552 1552 1552 1553 1553 1552 1552 1552 1552 1552 1552 1552 1551 1551 1551 1552 1552 1552 1552 1553 1553 1553 1553 1553 1554 1554 1554 1555 1555 1555 1556 1556 1556 1555 1555 1554 1553 1553 1552 1551 1551 1550 1549 1548 1547 1547 1546 1546 1545 1545 1544 1544 1543 1542 1542 1541 1540
1525 1526 1527 1529 1530 1532 1533 1534 1535 1536 1538 1539 1540 1541 1542 1543 1543 1543 1544 1544 1545 1546 1547 1548 1549 1550 1551 1552 1552 1552 1553 1553 1553 1553 1553 1553 1553 1553 1552 1552 1552 1552 1552 1552 1552 1552 1553 1553 1553 1553 1553 1554 1554 1554 1554 1555 1555 1555 1556 1556 1555 1555 1554 1554 1553 1552 1552 1551 1550 1549 1548 1548 1547 1546 1546 1545 1545 1544 1544 1543 1543 1542 1541 1540 1540
1526 1526 1528 1530 1532 1533 1533 1534 1535 1536 1537 1538 1540 1542 1543 1543 1543 1543 1544 1544 1545 1546 1547 1548 1549 1550 1551 1552 1553 1553 1553 1553 1553 1554 1553 1553 1553 1553 1553 1553 1553 1553 1553 1552 1553 1553 1553 1553 1553 1553 1553 1553 1554 1554 1554 1555 1555 1555 1555 1555 1555 1554 1554 1553 1552 1552 1551 1550 1549 1549 1548 1547 1546 1546 1545 1544 1544 1543 1543 1543 1542 1542 1541 1540 1539
1527 1528 1529 1530 1532 1533 1534 1534 1535 1536 1537 1538 1539 1541 1543 1543 1543 1543 1544 1545 1545 1546 1546 1548 1549 1550 1551 1552 1553 1553 1553 1553 1553 1554 1554 1554 1554 1554 1553 1553 1553 1553 1553 1553 1553 1553 1553 1553 1553 1553 1553 1553 1553 1553 1554 1554 1554 1554 1554 1554 1554 1554 1553 1553 1552 1551 1550 1550 1549 1548 1547 1547 1546 1545 1544 1544 1543 1543 1542 1542 1542 1541 1540 1540 1539
1529 1529 1529 1530 1532 1533 1534 1534 1535 1536 1537 1537 1539 1540 1542 1543 1543 1544 1544 1545 1545 1546 1546 1548 1549 1550 1551 1552 1553 1554 1554 1554 1554 1554 1554 1554 1554 1554 1554 1554 1553 1553 1554 1554 1554 1554 1554 1554 1554 1554 1554 1554 1554 1553 1554 1554 1554 1554 1554 1553 1553 1553 1553 1552 1551 1551 1550 1549 1548 1548 1547 1546 1545 1544 1543 1543 1542 1542 1541 1541 1541 1540 1540 1539 1538
1530 1530 1530 1530 1531 1532 1533 1534 1534 1535 1536 1537 1538 1539 1541 1543 1544 1544 1545 1545 1545 1546 1547 1548 1549 1550 1551 1552 1553 1553 1554 1554 1554 1554 1553 1554 1554 1554 1554 1554 1554 1554 1554 1554 1555 1555 1555 1555 1555 1554 1554 1554 1554 1554 1554 1553 1553 1553 1553 1553 1553 1552 1552 1551 1551 1550 1549 1548 1547 1547 1546 1545 1544 1543 1543 1542 1541 1541 1540 1540 1539 1539 1539 1539 1537
1530 1530 1530 1530 1530 1531 1532 1533 1534 1534 1535 1537 1538 1539 1541 1542 1544 1544 1544 1545 1546 1546 1547 1548 1550 1551 1552 1552 1553 1553 1553 1554 1553 1553 1553 1553 1554 1553 1554 1554 1554 1554 1554 1554 1555 1555 1555 1555 1555 1555 1555 1555 1554 1554 1554 1554 1553 1553 1553 1552 1552 1552 1551 1551 1550 1549 1548 1547 1546 1546 1545 1544 1543 1543 1542 1541 1541 1540 1539 1539 1538 1537 1538 1538 1535
1532 1531 1530 1529 1529 1530 1531 1533 1533 1534 1535 1536 1537 1539 1540 1542 1543 1544 1544 1545 1545 1546 1547 1548 1550 1551 1551 1552 1552 1552 1553 1553 1553 1553 1553 1553 1553 1553 1553 1553 1553 1554 1554 1554 1555 1555 1555 1555 1555 1555 1555 1555 1555 1554 1554 1554 1553 1553 1552 1552 1551 1551 1550 1550 1549 1548 1547 1546 1546 1545 1544 1543 1542 1542 1541 1540 1540 1539 1538 1537 1536 1535 1536 1536 1533
1530 1530 1530 1530 1530 1530 1531 1532 1533 1534 1535 1536 1537 1538 1539 1541 1543 1544 1544 1544 1545 1546 1547 1548 1550 1550 1551 1551 1552 1553 1553 1553 1554 1553 1552 1553 1553 1553 1553 1553 1553 1553 1553 1554 1554 1554 1555 1555 1555 1555 1555 1555 1555 1554 1554 1554 1553 1553 1552 1551 1551 1550 1550 1549 1548 1547 1546 1546 1545 1544 1543 1542 1541 1541 1540 1539 1538 1538 1536 1535 1535 1533 1533 1533 1531
1526 1527 1528 1529 1529 1530 1530 1532 1533 1534 1535 1536 1537 1537 1539 1541 1543 1544 1544 1544 1545 1546 1547 1548 1549 1550 1551 1551 1552 1553 1553 1553 1554 1554 1553 1552 1553 1553 1553 1553 1553 1553 1553 1553 1553 1554 1554 1554 1554 1555 1555 1554 1554 1554 1554 1553 1553 1552 1552 1551 1550 1550 1549 1548 1548 1547 1546 1545 1544 1543 1542 1541 1540 1540 1539 1538 1537 1536 1535 1534 1533 1533 1532 1531 1530
1522 1524 1526 1528 1529 1529 1530 1531 1532 1533 1534 1535 1536 1537 1539 1541 1542 1543 1544 1545 1546 1546 1547 1548 1549 1550 1551 1552 1553 1553 1554 1553 1553 1554 1553 1552 1552 1553 1553 1553 1553 1552 1552 1553 1553 1553 1554 1554 1554 1554 1554 1554 1554 1553 1553 1553 1553 1552 1552 1551 1550 1550 1549 1548 1547 1546 1545 1544 1543 1542 1541 1540 1539 1539 1538 1537 1536 1534 1533 1532 1531 1532 1532 1531 1529
1519 1523 1525 1526 1528 1529 1530 1531 1531 1532 1534 1534 1535 1537 1538 1540 1542 1543 1544 1545 1546 1547 1547 1548 1549 1550 1552 1553 1553 1554 1554 1553 1553 1553 1553 1552 1552 1552 1552 1552 1552 1552 1552 1553 1553 1554 1554 1554 1554 1554 1554 1554 1553 1553 1553 1553 1553 1552 1552 1551 1550 1549 1548 1547 1546 1545 1544 1543 1542 1541 1540 1539 1538 1537 1536 1535 1533 1532 1531 1530 1530 1530 1530 1529 1528
1518 1521 1523 1525 1527 1528 1529 1531 1531 1532 1533 1534 1535 1536 1538 1540 1542 1543 1545 1546 1546 1547 1548 1548 1549 1551 1552 1552 1553 1553 1554 1554 1553 1553 1552 1552 1551 1551 1551 1552 1552 1552 1553 1553 1553 1554 1554 1554 1554 1554 1554 1553 1553 1553 1553 1552 1552 1551 1551 1550 1549 1548 1547 1546 1545 1544 1543 1542 1541 1540 1538 1537 1535 1535 1534 1533 1532 1531 1530 1529 1529 1528 1528 1527 1526
1519 1521 1522 1524 1527 1528 1529 1530 1531 1533 1534 1535 1535 1537 1539 1540 1542 1543 1545 1546 1547 1548 1548 1549 1550 1551 1552 1552 1553 1553 1553 1553 1553 1552 1552 1551 1551 1551 1551 1552 1552 1553 1553 1553 1553 1554 1554 1554 1554 1554 1553 1553 1552 1552 1552 1551 1551 1551 1550 1549 1548 1547 1546 1545 1544 1543 1542 1541 1540 1538 1537 1535 1534 1534 1533 1532 1531 1530 1529 1528 1527 1526 1526 1525 1524
1520 1521 1523 1525 1526 1528 1529 1530 1531 1533 1534 1535 1536 1537 1539 1541 1542 1543 1545 1546 1547 1548 1549 1549 1550 1551 1552 1552 1552 1552 1553 1553 1552 1552 1552 1551 1551 1551 1552 1552 1552 1553 1553 1553 1553 1554 1554 1554 1554 1554 1553 1553 1552 1551 1551 1550 1550 1550 1549 1548 1547 1546 1545 1544 1543 1542 1541 1540 1539 1538 1536 1535 1534 1533 1532 1531 1531 1530 1529 1527 1526 1525 1525 1524 1523
1521 1523 1524 1525 1526 1527 1529 1530 1531 1533 1534 1535 1536 1537 1539 1541 1542 1543 1545 1546 1548 1549 1549 1550 1551 1551 1551 1551 1551 1552 1552 1552 1552 1552 1552 1551 1551 1551 1551 1552 1552 1552 1553 1553 1553 1553 1553 1554 1554 1553 1553 1552 1552 1551 1550 1549 1549 1549 1548 1547 1546 1545 1544 1543 1542 1541 1540 1539 1538 1537 1536 1534 1533 1532 1531 1530 1530 1529 1528 1527 1526 1525 1524 1523 1522
1522 1523 1524 1524 1526 1527 1529 1530 1531 1533 1534 1535 1536 1537 1539 1541 1542 1544 1545 1547 1548 1549 1550 1550 1550 1551 1551 1551 1551 1551 1552 1552 1552 1552 1551 1551 1551 1551 1551 1551 1552 1552 1552 1553 1553 1553 1553 1553 1553 1553 1552 1551 1550 1550 1549 1548 1548 1548 1548 1546 1545 1544 1543 1542 1541 1540 1539 1538 1538 1537 1536 1534 1533 1532 1531 1530 1529 1528 1527 1526 1525 1524 1523 1522 1521
1522 1523 1524 1525 1526 1527 1529 1530 1532 1533 1534 1535 1536 1537 1539 1541 1543 1544 1546 1547 1548 1549 1550 1550 1550 1550 1551 1551 1551 1551 1551 1551 1551 1551 1551 1551 1551 1551 1551 1551 1551 1551 1552 1552 1552 1552 1552 1552 1551 1551 1551 1550 1549 1548 1548 1547 1547 1547 1547 1545 1544 1543 1542 1541 1541 1540 1539 1538 1537 1536 1535 1534 1532 1531 1530 1529 1528 1526 1525 1524 1524 1523 1522 1521 1520
1522 1523 1525 1526 1527 1528 1529 1531 1532 1534 1535 1535 1536 1537 1539 1541 1543 1545 1546 1547 1548 1548 1549 1550 1550 1551 1552 1552 1552 1551 1551 1551 1550 1550 1550 1550 1550 1550 1550 1550 1550 1550 1551 1551 1551 1551 1551 1551 1550 1550 1549 1549 1548 1547 1547 1547 1547 1547 1546 1544 1543 1542 1541 1541 1540 1539 1538 1537 1536 1535 1534 1533 1532 1531 1529 1528 1527 1525 1524 1523 1522 1522 1521 1520 1519
1522 1523 1525 1526 1527 1528 1530 1531 1533 1534 1535 1535 1536 1538 1539 1541 1543 1545 1546 1546 1547 1548 1549 1550 1551 1551 1552 1552 1552 1551 1551 1550 1550 1550 1549 1549 1549 1549 1549 1550 1550 1550 1550 1551 1551 1550 1550 1550 1550 1549 1548 1548 1547 1546 1546 1546 1546 1546 1545 1543 1542 1541 1540 1540 1539 1539 1538 1537 1536 1535 1534 1532 1531 1530 1529 1527 1525 1524 1522 1521 1520 1520 1519 1519 1518
1522 1523 1524 1525 1527 1528 1530 1532 1533 1534 1535 1536 1537 1538 1539 1540 1543 1544 1545 1546 1546 1547 1549 1550 1551 1551 1552 1552 1552 1552 1551 1550 1550 1550 1550 1549 1549 1549 1549 1549 1549 1549 1550 1550 1550 1550 1549 1548 1548 1548 1548 1547 1546 1545 1545 1545 1545 1545 1545 1543 1542 1541 1540 1539 1539 1538 1537 1536 1535 1534 1533 1531 1530 1529 1528 1526 1524 1523 1521 1520 1518 1517 1517 1517 1517
1521 1523 1524 1525 1527 1528 1530 1532 1533 1534 1536 1537 1537 1538 1539 1540 1542 1544 1544 1545 1546 1548 1549 1550 1551 1552 1552 1552 1552 1552 1551 1551 1550 1550 1550 1550 1549 1548 1548 1548 1549 1549 1549 1549 1549 1549 1548 1548 1547 1547 1547 1546 1545 1544 1544 1544 1544 1544 1544 1543 1542 1541 1540 1539 1538 1537 1537 1536 1535 1533 1532 1530 1529 1527 1526 1525 1523 1521 1520 1518 1517 1515 1515 1515 1514
1521 1522 1524 1525 1527 1528 1530 1532 1533 1535 1536 1537 1537 1538 1539 1541 1542 1543 1544 1545 1546 1548 1549 1550 1551 1552 1552 1552 1552 1551 1551 1550 1550 1550 1549 1549 1548 1548 1547 1548 1548 1548 1548 1548 1548 1548 1548 1547 1547 1546 1546 1545 1544 1543 1543 1543 1543 1542 1542 1541 1541 1540 1539 1539 1538 1537 1537 1536 1534 1532 1531 1529 1528 1526 1525 1523 1522 1520 1519 1517 1516 1514 1513 1513 1513
1521 1522 1523 1525 1526 1528 1530 1532 1533 1535 1536 1536 1537 1538 1539 1541 1542 1543 1544 1546 1547 1548 1549 1551 1551 1551 1551 1551 1551 1550 1550 1550 1549 1549 1549 1548 1547 1547 1547 1547 1547 1547 1547 1547 1547 1547 1547 1547 1546 1546 1545 1545 1544 1543 1542 1542 1543 1542 1541 1541 1540 1539 1539 1538 1538 1537 1536 1535 1534 1532 1531 1529 1527 1525 1524 1522 1521 1519 1518 1516 1515 1514 1513 1512 1512
1520 1521 1523 1525 1526 1528 1530 1532 1533 1534 1535 1536 1536 1537 1538 1539 1541 1543 1544 1545 1547 1548 1550 1550 1551 1550 1551 1551 1550 1550 1549 1549 1548 1548 1548 1547 1547 1546 1546 1546 1546 1546 1546 1546 1546 1546 1546 1546 1546 1546 1545 1545 1544 1543 1543 1543 1542 1542 1541 1541 1540 1539 1538 1538 1537 1536 1536 1535 1534 1532 1531 1529 1527 1525 1523 1522 1520 1519 1517 1516 1515 1513 1512 1512 1510
1519 1521 1523 1525 1526 1528 1530 1531 1533 1534 1534 1535 1536 1537 1537 1539 1540 1542 1543 1545 1546 1548 1549 1550 1550 1550 1550 1550 1550 1549 1549 1548 1548 1547 1547 1546 1546 1545 1545 1545 1545 1546 1546 1546 1546 1546 1546 1546 1546 1546 1546 1545 1544 1544 1543 1543 1542 1542 1542 1541 1541 1540 1539 1537 1536 1535 1535 1534 1534 1533 1531 1529 1527 1525 1523 1522 1520 1519 1517 1516 1514 1513 1512 1511 1509
1520 1521 1523 1524 1526 1528 1529 1531 1532 1533 1534 1534 1535 1536 1537 1539 1541 1542 1544 1545 1547 1548 1549 1549 1550 1550 1549 1549 1549 1549 1548 1547 1547 1546 1546 1546 1545 1545 1545 1545 1545 1545 1546 1546 1546 1546 1546 1546 1546 1546 1546 1545 1545 1544 1544 1544 1543 1543 1542 1542 1541 1540 1539 1538 1536 1534 1533 1532 1533 1532 1531 1529 1527 1525 1523 1522 1520 1519 1517 1515 1514 1512 1511 1510 1509
1519 1521 1522 1524 1526 1527 1529 1530 1531 1532 1533 1534 1535 1536 1538 1539 1541 1543 1544 1546 1547 1548 1548 1549 1549 1549 1549 1549 1548 1548 1547 1547 1546 1546 1545 1545 1545 1544 1544 1545 1545 1545 1546 1546 1546 1546 1546 1546 1546 1546 1546 1545 1544 1544 1544 1544 1544 1544 1543 1543 1542 1541 1540 1538 1537 1535 1533 1531 1530 1530 1530 1529 1527 1525 1523 1521 1520 1518 1516 1515 1513 1512 1510 1509 1508
1518 1520 1522 1523 1525 1527 1528 1529 1530 1531 1532 1533 1534 1536 1538 1540 1542 1543 1544 1546 1546 1547 1547 1548 1548 1548 1548 1548 1547 1547 1546 1546 1546 1545 1545 1545 1545 1544 1545 1545 1545 1546 1546 1546 1546 1547 1547 1546 1546 1546 1545 1545 1545 1545 1545 1545 1545 1544 1544 1544 1543 1542 1541 1540 1538 1537 1535 1532 1530 1528 1526 1526 1526 1525 1523 1522 1520 1518 1516 1514 1513 1511 1510 1508 1507
1517 1519 1521 1523 1525 1526 1527 1528 1529 1530 1531 1533 1535 1537 1539 1540 1542 1543 1544 1545 1545 1546 1546 1547 1547 1547 1547 1547 1547 1546 1546 1545 1545 1545 1545 1545 1545 1545 1545 1546 1546 1546 1546 1547 1547 1547 1547 1547 1546 1546 1546 1545 1545 1545 1545 1545 1545 1544 1544 1544 1543 1542 1541 1540 1538 1537 1536 1534 1532 1530 1527 1525 1524 1524 1523 1521 1519 1517 1516 1514 1512 1511 1509 1507 1506
1516 1519 1520 1522 1524 1525 1526 1527 1529 1530 1531 1533 1535 1537 1539 1540 1542 1543 1544 1545 1545 1545 1545 1546 1546 1546 1547 1546 1546 1546 1545 1545 1545 1545 1545 1545 1545 1545 1546 1546 1546 1546 1547 1547 1547 1547 1547 1547 1547 1546 1546 1546 1546 1545 1545 1545 1545 1544 1544 1543 1542 1541 1540 1539 1538 1537 1536 1534 1533 1531 1529 1527 1525 1524 1523 1521 1520 1518 1516 1514 1511 1510 1508 1507 1505